Preview of NWS' New Version of Forecast
This preview is not operational and should not be used for support decisions.

Regional Weather Roundup (RWR)

Issued by National Weather Service (NWS)

                            
000
ASUS44 KMEG 240310
RWRTN 
TENNESSEE HOURLY STATE WEATHER ROUNDUP
NATIONAL WEATHER SERVICE MEMPHIS TN
1000 PM CDT TUE APR 23 2019

TNZ002-004-019-021-049-052-054-088>092-240400-
WEST TENNESSEE
  
CITY           SKY/WX    TMP DP  RH WIND       PRES   REMARKS
MEMPHIS INTL   FAIR      64  57  78 S7        30.00S                  
NWS MEMPHIS      N/A     62 N/A N/A MISG        N/A                   
JACKSON        FAIR      62  57  83 S6        30.01R                  
DYERSBURG      FAIR      63  60  90 S3        30.00S                  
SOMERVILLE     CLEAR     61  57  88 CALM      30.00S                  
COVINGTON      CLEAR     64  59  82 S5        29.99F                  
UNION CITY     CLEAR     66  59  77 CALM      29.97S                  
BOLIVAR        CLEAR     61  52  72 CALM      30.00F                  
PARIS          CLEAR     63  57  82 S3        29.99S                  
HUNTINGDON     CLEAR     63  57  82 S6        29.99S                  
LEXINGTON      CLEAR     63  57  82 CALM      30.01R                  
SELMER         CLEAR     63  52  67 S3        30.01S                  
SAVANNAH       CLEAR     61  57  88 CALM      30.02R                  
$$

TNZ008-025-027-028-033-062-065-066-240400-
NORTH MIDDLE TENNESSEE
  
CITY           SKY/WX    TMP DP  RH WIND       PRES   REMARKS
NASHVILLE      MOCLDY    71  48  43 SW5       30.02S                  
DICKSON        CLEAR     66  52  59 SW8       30.01F                  
PORTLAND       PTCLDY    70  50  49 SW3       30.00S                  
CLARKSVILLE    FAIR      66  53  63 CALM      29.99F                  
LEBANON        CLEAR     70  54  56 SW5       30.00S                  
SMYRNA         FAIR      69  52  54 SW6       30.03S                  
MURFREESBORO   CLEAR     70  50  49 SW5       30.01S                  
COOKEVILLE     PTCLDY    63  55  77 CALM      30.02S                  
LIVINGSTON     CLOUDY    68  50  52 SW6       30.02S                  
GALLATIN       PTCLDY    70  54  56 SW5       30.03S                  
CROSSVILLE     FAIR      65  48  54 CALM      30.07F                  
ROCKWOOD       CLEAR     66  48  52 W5        30.05S                  
$$

TNZ061-075-076-078-094-096-097-240400-
SOUTH MIDDLE TENNESSEE
  
CITY           SKY/WX    TMP DP  RH WIND       PRES   REMARKS
LAWRENCEBURG   CLEAR     59  55  88 CALM      30.03F                  
LEWISBURG      CLEAR     57  54  88 CALM      30.03S                  
FAYETTEVILLE   CLEAR     66  57  72 CALM      30.04S                  
TULLAHOMA      CLEAR     59  55  88 CALM      30.05R                  
WINCHESTER     CLEAR     64  55  72 CALM      30.04R                  
MCMINNVILLE    CLEAR     63  55  77 CALM      30.04R                  
COLUMBIA       CLEAR     61  61 100 SE5       30.01F                  
SHELBYVILLE    CLEAR     61  55  82 CALM      30.04R                  
$$

TNZ017-018-042-046-047-240400-
NORTHEAST TENNESSEE
  
CITY           SKY/WX    TMP DP  RH WIND       PRES   REMARKS
TRI CITIES     MOCLDY    68  50  52 CALM      30.02S                  
ELIZABETHTON   FAIR      61  52  72 CALM      30.02S                  
GREENEVILLE    PTCLDY    68  50  52 S3        30.02S                  
$$

TNZ012-013-036-069-073-074-240400-
CENTRAL EAST TENNESSEE
  
CITY           SKY/WX    TMP DP  RH WIND       PRES   REMARKS
KNOXVILLE      FAIR      68  48  48 S5        30.01S                  
OAK RIDGE      FAIR      71  48  43 CALM      30.03R                  
DOWNTOWN KNOXV CLEAR     70  54  56 W6        30.01S                  
GATLINBURG     CLEAR     63  52  67 CALM      30.02R                  
MORRISTOWN     PTCLDY    72  50  46 W9        30.01S                  
JACKSBORO      CLEAR     70  48  46 CALM      30.05R                  
$$

TNZ083-085-099-240400-
SOUTHEAST TENNESSEE
  
CITY           SKY/WX    TMP DP  RH WIND       PRES   REMARKS
CHATTANOOGA    MOCLDY    71  51  49 CALM      30.04S                  
DAYTON         CLEAR     68  54  60 CALM      30.02F                  
$$

SKY/WX REPORTED AS FAIR MEANS FEW OR NO CLOUDS BELOW
12 THOUSAND FEET.